Location: Saluda
(35.2377°N, 82.3468°W)
Time: 03:57:40
(UTC+00:00)

Vanguard 2 Rocket - Pass Details

Date: 11 October 2022
Orbit: 555 x 3321 km, 32.9° (Epoch: 04 December)

Event Time Altitude Azimuth Distance (km) Brightness Sun altitude
Rises 06:54:30 0° 282° (WNW) 6,286 - -53.9°
Reaches altitude 10° 06:59:29 10° 278° (W) 4,836 - -53.2°
Maximum altitude 07:11:03 46° 211° (SSW) 1,897 - -51.4°
Drops below altitude 10° 07:17:45 10° 139° (SE) 2,835 - -50.4°
Sets 07:19:57 0° 133° (SE) 3,539 - -50.0°
